[[{"header":{"parameterUnit":"m.s-1","parameterCategory":1,"la1":30.2991,"la2":30.254,"lo1":-89.0895,"lo2":-89.0444,"dy":0.0017,"dx":0.0017,"nx":28,"ny":28,"refTime":"2023-10-18T03:00:00:Z","depth":0,"parameterNumber":2,"parameterNumberName":"U-component_of_WINDS"},"data":[0,0,0,0,0,0,0,0,0,0,0,0,0,0,0,0,0,0,0,0,0,0,0,0,0,0,0,0,0,0,0,0,0,0,0,0,0,0,0,0,0,0,0,0,0,0,0,0,0,0,0,0,0,0,0,0,0,0,-1.0608,-1.0607,0,-1.057,-1.057,-1.0569,-1.0563,-1.0563,-1.0564,-1.0564,-1.0526,-1.0524,-1.0523,0,0,0,0,0,0,0,0,0,0,0,0,0,-1.0673,-1.0672,-1.0608,-1.0607,-1.0607,-1.057,-1.057,-1.0569,-1.0563,-1.0563,-1.0564,-1.0564,-1.0526,-1.0524,-1.0523,0,0,0,0,0,0,0,0,0,0,0,0,0,-1.0641,-1.0672,-1.0608,-1.0599,-1.0598,-1.0571,-1.057,-1.0569,-1.0563,-1.0563,-1.0564,-1.0564,-1.0527,-1.0525,-1.0523,-1.0501,0,0,-1.0517,-1.0516,0,0,0,0,0,0,0,0,-1.0643,-1.0639,-1.0601,-1.06,-1.0598,-1.0572,-1.0579,-1.0546,-1.0563,-1.0576,-1.0564,-1.0565,-1.0541,-1.0538,-1.0529,-1.0499,-1.0497,-1.0516,-1.0515,-1.0514,-1.0514,0,0,0,0,0,0,0,-1.0645,-1.0641,-1.0593,-1.06,-1.0599,-1.0597,-1.0593,-1.0573,-1.0556,-1.0575,-1.0575,-1.057,-1.054,-1.0531,-1.0528,-1.0497,-1.0516,-1.0515,-1.0514,-1.0513,-1.0446,-1.0446,0,0,0,0,0,0,-1.0649,-1.0642,-1.0594,-1.0592,-1.0623,-1.0596,-1.0591,-1.058,-1.0556,-1.0553,-1.057,-1.057,-1.0535,-1.0531,-1.0527,-1.0499,-1.0514,-1.0513,-1.0511,-1.0447,-1.0446,-1.0446,0,0,0,0,0,0,-1.0651,-1.0645,-1.0596,-1.0617,-1.0611,-1.0594,-1.0581,-1.0579,-1.057,-1.0552,-1.055,-1.0564,-1.0535,-1.053,-1.0507,-1.0498,-1.0512,-1.051,-1.0448,-1.0447,-1.0446,-1.0444,0,0,0,0,0,0,-1.0653,-1.0646,-1.0637,-1.0617,-1.0609,-1.0576,-1.0581,-1.0578,-1.0567,-1.0567,-1.0546,-1.0543,-1.0535,-1.051,-1.0505,-1.0496,-1.0508,-1.0448,-1.0447,-1.0446,-1.0445,-1.0443,-1.0442,0,0,0,0,0,-1.0655,-1.0638,-1.0637,-1.0631,-1.0599,-1.0576,-1.0572,-1.0562,-1.0566,-1.0557,-1.0546,-1.0544,-1.05,-1.0508,-1.0502,-1.0492,-1.0449,-1.0447,-1.0446,-1.0446,-1.0444,-1.0442,0,0,0,0,0,0,-1.0658,-1.0635,-1.0633,-1.061,-1.0595,-1.0575,-1.0564,-1.0561,-1.0544,-1.0545,-1.0534,-1.0529,-1.0507,-1.0497,-1.0507,-1.0469,-1.0475,-1.0472,-1.0476,-1.0474,-1.0473,-1.0475,-1.0507,0,0,0,0,0,-1.0656,-1.0639,-1.0621,-1.0601,-1.0594,-1.058,-1.057,-1.0564,-1.0548,-1.0542,-1.0529,-1.0513,-1.0496,-1.0485,-1.0468,-1.0444,-1.0439,-1.0434,-1.0433,-1.0431,-1.0429,-1.0415,-1.0412,-1.0441,-1.0441,-1.0441,0,0,-1.0651,-1.0637,-1.0627,-1.0602,-1.0589,-1.0572,-1.0575,-1.0557,-1.0544,-1.0539,-1.0517,-1.0507,-1.0489,-1.0465,-1.0454,-1.0457,-1.042,-1.043,-1.0429,-1.0427,-1.0414,-1.0411,-1.0408,-1.044,-1.0441,-1.0441,0,0,-1.0634,-1.0622,-1.0604,-1.0592,-1.0573,-1.0564,-1.056,-1.054,-1.0533,-1.0511,-1.0507,-1.0491,-1.0462,-1.0449,-1.0439,-1.0417,-1.0414,-1.0412,-1.0404,-1.039,-1.0388,-1.0386,-1.0377,-1.0374,-1.041,-1.041,-1.041,0,-1.063,-1.0604,-1.0595,-1.0577,-1.0566,-1.0561,-1.0543,-1.0531,-1.0508,-1.05,-1.0503,-1.0466,-1.0454,-1.0427,-1.0422,-1.0414,-1.0408,-1.0414,-1.0389,-1.0387,-1.0385,-1.0377,-1.0373,-1.041,-1.041,-1.041,-1.041,0,-1.0601,-1.0583,-1.0571,-1.0548,-1.0536,-1.0518,-1.0506,-1.0495,-1.049,-1.0481,-1.0458,-1.0443,-1.0423,-1.0416,-1.0411,-1.0388,-1.039,-1.0391,-1.0396,-1.0382,-1.0374,-1.0371,-1.0409,-1.0409,-1.041,-1.041,0,0,-1.0584,-1.0556,-1.0552,-1.0541,-1.0521,-1.0507,-1.0489,-1.0469,-1.0459,-1.0443,-1.0427,-1.0403,-1.0404,-1.0392,-1.0386,-1.0374,-1.0357,-1.0377,-1.0376,-1.0373,-1.033,-1.0329,-1.0325,-1.0356,-1.0355,-1.0355,-1.0331,0,-1.0563,-1.053,-1.0521,-1.0493,-1.0476,-1.0471,-1.0456,-1.0441,-1.0432,-1.0416,-1.0406,-1.0389,-1.0392,-1.0385,-1.0373,-1.0362,-1.0348,-1.0363,-1.034,-1.0339,-1.0344,-1.0321,-1.0319,-1.0298,-1.0328,-1.0328,-1.0327,0,-1.0534,-1.0518,-1.0488,-1.0469,-1.0462,-1.0447,-1.0428,-1.0414,-1.0397,-1.0391,-1.0379,-1.0374,-1.0354,-1.0361,-1.0335,-1.0345,-1.0335,-1.0329,-1.0327,-1.0324,-1.0332,-1.0316,-1.0291,-1.0287,-1.0322,-1.0323,-1.0323,0,-1.0524,-1.0494,-1.0472,-1.0464,-1.0441,-1.0431,-1.0421,-1.0405,-1.0394,-1.0378,-1.037,-1.0352,-1.0341,-1.0328,-1.0318,-1.0324,-1.0292,-1.0298,-1.0286,-1.0286,-1.0278,-1.0278,-1.025,-1.0274,-1.0274,-1.0274,-1.0274,0,-1.0501,-1.0483,-1.0467,-1.0453,-1.0433,-1.0423,-1.0403,-1.0393,-1.0379,-1.0363,-1.0358,-1.0344,-1.0333,-1.0317,-1.0309,-1.0288,-1.0283,-1.0278,-1.0276,-1.0277,-1.0278,-1.027,-1.0271,-1.0273,-1.0273,-1.0273,-1.0274,0,-1.0485,-1.0474,-1.0449,-1.043,-1.0425,-1.041,-1.0394,-1.038,-1.0372,-1.0352,-1.0347,-1.0332,-1.0313,-1.0303,-1.0279,-1.0274,-1.0249,-1.0249,-1.0255,-1.0254,-1.0242,-1.0243,-1.0206,-1.0201,-1.0229,-1.0229,-1.0229,0,-1.0471,-1.0456,-1.0435,-1.0424,-1.0414,-1.0397,-1.0385,-1.0375,-1.0363,-1.0343,-1.0332,-1.0313,-1.0297,-1.0267,-1.0254,-1.0236,-1.0234,-1.0223,-1.0231,-1.0233,-1.0232,-1.0233,-1.0231,-1.0221,-1.022,-1.022,-1.022,0,-1.0446,-1.0441,-1.0424,-1.0405,-1.0391,-1.0376,-1.0361,-1.0352,-1.034,-1.0327,-1.0307,-1.0294,-1.027,-1.025,-1.0231,-1.0221,-1.0218,-1.0218,-1.0214,-1.0215,-1.0218,-1.0215,-1.0249,-1.0218,-1.0218,-1.0218,-1.0219,-1.0219,-1.043,-1.0417,-1.04,-1.0381,-1.0368,-1.0354,-1.034,-1.033,-1.0313,-1.0292,-1.0287,-1.0266,-1.025,-1.0224,-1.0214,-1.0197,-1.0199,-1.0194,-1.0192,-1.019,-1.0189,-1.0222,-1.0194,-1.0194,-1.0194,-1.0194,-1.0194,0,-1.0404,-1.0393,-1.0376,-1.0354,-1.034,-1.0338,-1.0322,-1.0309,-1.0291,-1.0276,-1.026,-1.0237,-1.0218,-1.0205,-1.0185,-1.0175,-1.0173,-1.017,-1.017,-1.0168,-1.0189,-1.0194,-1.0172,-1.0172,-1.0172,-1.0172,-1.0172,-1.0172,-1.0389,-1.0366,-1.0359,-1.033,-1.0319,-1.0298,-1.0289,-1.0276,-1.0264,-1.0238,-1.0222,-1.0214,-1.0199,-1.0179,-1.0162,-1.0158,-1.0151,-1.0148,-1.0144,-1.0164,-1.0166,-1.0168,-1.0173,-1.0147,-1.0147,-1.0124,-1.0124,-1.0123]},{"header":{"parameterUnit":"m.s-1","parameterCategory":1,"la1":30.2991,"la2":30.254,"lo1":-89.0895,"lo2":-89.0444,"dy":0.0017,"dx":0.0017,"nx":28,"ny":28,"refTime":"2023-10-18T03:00:00:Z","depth":0,"parameterNumber":3,"parameterNumberName":"V-component_of_WINDS"},"data":[0,0,0,0,0,0,0,0,0,0,0,0,0,0,0,0,0,0,0,0,0,0,0,0,0,0,0,0,0,0,0,0,0,0,0,0,0,0,0,0,0,0,0,0,0,0,0,0,0,0,0,0,0,0,0,0,0,0,2.4992,2.4992,0,2.5014,2.5014,2.5014,2.5006,2.5006,2.5006,2.5005,2.5024,2.5025,2.5026,0,0,0,0,0,0,0,0,0,0,0,0,0,2.4942,2.4943,2.4992,2.4992,2.4993,2.5013,2.5014,2.5014,2.5007,2.5006,2.5005,2.5005,2.5024,2.5025,2.5026,0,0,0,0,0,0,0,0,0,0,0,0,0,2.4963,2.4943,2.4992,2.4991,2.4992,2.5013,2.5014,2.5014,2.5007,2.5006,2.5005,2.5005,2.5024,2.5025,2.5027,2.5049,0,0,2.5031,2.5032,0,0,0,0,0,0,0,0,2.4962,2.4965,2.4991,2.4991,2.4992,2.5007,2.5003,2.5026,2.5007,2.5001,2.5005,2.5004,2.5019,2.5021,2.5026,2.505,2.5051,2.5031,2.5032,2.5033,2.5033,0,0,0,0,0,0,0,2.4961,2.4964,2.5,2.4992,2.4992,2.4989,2.4991,2.5007,2.5013,2.5001,2.5001,2.5004,2.5019,2.5025,2.5027,2.5052,2.5031,2.5032,2.5033,2.5034,2.5095,2.5096,0,0,0,0,0,0,2.4959,2.4963,2.5,2.5001,2.4975,2.4991,2.4993,2.5002,2.5013,2.5014,2.5004,2.5003,2.5023,2.5025,2.5027,2.5054,2.5033,2.5034,2.5035,2.5094,2.5095,2.5096,0,0,0,0,0,0,2.4958,2.4963,2.4999,2.4982,2.4986,2.4992,2.5003,2.5003,2.5009,2.5016,2.5016,2.5009,2.5022,2.5025,2.5044,2.5055,2.5035,2.5036,2.5093,2.5095,2.5096,2.5109,0,0,0,0,0,0,2.4957,2.4962,2.4972,2.4982,2.4987,2.5016,2.5003,2.5004,2.5012,2.5011,2.5021,2.5021,2.5022,2.5042,2.5046,2.5056,2.5037,2.5092,2.5094,2.5095,2.5107,2.511,2.5112,0,0,0,0,0,2.4955,2.4974,2.4972,2.4977,2.4999,2.5017,2.5019,2.502,2.5013,2.5022,2.5026,2.5021,2.5053,2.5044,2.5048,2.5059,2.5092,2.5093,2.5095,2.5106,2.5109,2.5112,0,0,0,0,0,0,2.4963,2.4975,2.4974,2.4997,2.5006,2.5015,2.5027,2.5024,2.5035,2.5033,2.5033,2.5036,2.5055,2.5059,2.5049,2.5082,2.5071,2.5074,2.5078,2.5082,2.5084,2.5082,2.5038,0,0,0,0,0,2.4968,2.4982,2.4992,2.5011,2.5016,2.5021,2.5028,2.5028,2.5038,2.5041,2.5046,2.5055,2.5067,2.5075,2.5086,2.5108,2.511,2.5118,2.5121,2.5123,2.5125,2.5136,2.5139,2.5102,2.5102,2.5102,0,0,2.4978,2.4986,2.4995,2.5013,2.502,2.5034,2.5024,2.5039,2.5049,2.5043,2.5061,2.5066,2.5075,2.5095,2.5105,2.5099,2.5136,2.5125,2.5127,2.5127,2.5138,2.5142,2.5145,2.5103,2.5103,2.5102,0,0,2.5002,2.501,2.5027,2.5034,2.5046,2.5049,2.5053,2.5063,2.5066,2.5085,2.5081,2.5092,2.5113,2.512,2.5126,2.5153,2.5148,2.5157,2.517,2.5181,2.5184,2.5186,2.5195,2.5198,2.5159,2.5159,2.5159,0,2.5011,2.5033,2.5035,2.5051,2.5058,2.5055,2.5072,2.5079,2.5093,2.5098,2.5092,2.5118,2.5125,2.5146,2.5153,2.5158,2.5162,2.5155,2.5183,2.5186,2.5188,2.5197,2.52,2.516,2.5159,2.5159,2.5159,0,2.5044,2.5059,2.5071,2.5086,2.5095,2.5111,2.5115,2.5124,2.5123,2.5127,2.5145,2.5153,2.5165,2.5171,2.517,2.5192,2.5189,2.5183,2.5172,2.5193,2.5201,2.5204,2.5161,2.516,2.516,2.516,0,0,2.5073,2.5089,2.5094,2.51,2.5113,2.5124,2.5139,2.5153,2.516,2.517,2.5182,2.52,2.5195,2.5202,2.5203,2.5213,2.5233,2.5206,2.5206,2.521,2.5256,2.526,2.5263,2.523,2.5231,2.5232,2.5255,0,2.5097,2.5125,2.5128,2.5153,2.5166,2.5164,2.5177,2.5186,2.5189,2.5201,2.5205,2.5217,2.521,2.5214,2.5224,2.5228,2.5242,2.5227,2.5241,2.5241,2.5237,2.5268,2.5271,2.5293,2.5258,2.5259,2.5259,0,2.5129,2.5141,2.5167,2.5178,2.5184,2.5196,2.5208,2.5219,2.5229,2.5231,2.5239,2.5238,2.5253,2.5243,2.5263,2.5252,2.5258,2.5261,2.5262,2.5262,2.5251,2.5268,2.53,2.5303,2.5264,2.5264,2.5264,0,2.5146,2.5168,2.5187,2.5193,2.5206,2.5215,2.522,2.523,2.5237,2.5248,2.5253,2.5265,2.5271,2.528,2.5282,2.5275,2.5302,2.5292,2.5303,2.5303,2.5308,2.5307,2.5341,2.5314,2.5314,2.5314,2.5314,0,2.5172,2.5188,2.5195,2.5206,2.5224,2.5227,2.5244,2.5249,2.5257,2.5269,2.5268,2.5278,2.5281,2.5292,2.5293,2.5309,2.5312,2.5314,2.5314,2.5313,2.5313,2.5316,2.5314,2.5314,2.5314,2.5314,2.5314,0,2.5193,2.5199,2.5219,2.523,2.5234,2.5246,2.5255,2.5266,2.527,2.5284,2.5288,2.5294,2.5307,2.531,2.5325,2.5326,2.5345,2.5344,2.5342,2.5341,2.5352,2.535,2.5387,2.5392,2.5363,2.5363,2.5364,0,2.5209,2.5221,2.5234,2.5243,2.5249,2.5262,2.527,2.5274,2.5282,2.5294,2.5303,2.5316,2.5326,2.5347,2.5352,2.5364,2.5362,2.5375,2.5364,2.5363,2.5361,2.536,2.5361,2.5376,2.5376,2.5377,2.5377,0,2.5236,2.5238,2.5251,2.5264,2.5274,2.5285,2.5295,2.5301,2.5306,2.5316,2.5329,2.5337,2.5353,2.5366,2.5378,2.5382,2.538,2.538,2.5383,2.5382,2.538,2.5381,2.5346,2.5379,2.5379,2.5379,2.5379,2.5379,2.5254,2.5265,2.5276,2.529,2.5298,2.5308,2.5318,2.5324,2.5335,2.5349,2.535,2.5365,2.5374,2.539,2.5395,2.5406,2.5402,2.5407,2.5408,2.5409,2.5409,2.538,2.5408,2.5408,2.5408,2.5408,2.5408,0,2.528,2.5288,2.53,2.5315,2.5326,2.5324,2.5335,2.5344,2.5357,2.5366,2.5377,2.5392,2.5404,2.5411,2.5423,2.543,2.5429,2.5433,2.5432,2.5433,2.5412,2.5408,2.5433,2.5433,2.5433,2.5433,2.5433,2.5433,2.5295,2.5313,2.5317,2.5338,2.5345,2.536,2.5367,2.5375,2.5382,2.54,2.5411,2.5415,2.5423,2.5436,2.5446,2.5448,2.5452,2.5456,2.5457,2.5437,2.5434,2.5432,2.5428,2.5457,2.5457,2.5476,2.5476,2.5476]}]]